{"data":{"norad_id":62286,"epoch":"2026-05-25T00:24:19.124064Z","epoch_age_seconds":73732,"freshness":"FRESH","line1":"1 62286U 24237V   26145.01688801  .00017836  00000+0  65594-3 0  9998","line2":"2 62286  42.9986 145.4403 0000759 307.0096  53.0686 15.27589007 82867","mean_motion":15.27589007,"eccentricity":7.59e-5,"inclination_deg":42.9986,"raan_deg":145.4403,"arg_perigee_deg":307.0096,"mean_anomaly_deg":53.0686,"bstar":0.00065594,"rev_number":8286,"period_min":94.266192896215,"perigee_km":482.50136399626,"apogee_km":483.54288795158,"semimajor_km":6861.1591259739,"source":"CELESTRAK","updated_at":"2026-05-25T13:38:19.645943Z"}}